QPF
0.00 0.00 0.00 0.00 0.00 0.00 0.00 0.00 0.00 0.00 0.00 0.00 0.00 0.00 0.00 0.00 0.00 0.00 0.00 0.00 0.00 0.00 0.01 0.02 0.06 0.10 0.12 0.07 0.03 0.04 0.04 0.03 0.01 0.01 0.00 0.00 0.00 0.00 0.00 0.00 0.00 0.00 0.00 0.00
0.00 0.00 0.00 0.00 0.00 0.00 0.00 0.00 0.00 0.00 0.00 0.00 0.00 0.00 0.00 0.00 0.00 0.00 0.00 0.00 0.01 0.04 0.08 0.19 0.30 0.35 0.32 0.21 0.08 0.03 0.02 0.02 0.01 0.00 0.00 0.00 0.00 0.00 0.00 0.00 0.00 0.00 0.00 0.00
0.00 0.00 0.00 0.00 0.00 0.00 0.00 0.00 0.00 0.00 0.00 0.00 0.00 0.00 0.00 0.00 0.00 0.01 0.02 0.05 0.10 0.18 0.41 0.81 0.91 0.70 0.63 0.48 0.17 0.03 0.02 0.01 0.00 0.01 0.00 0.00 0.00 0.00 0.00 0.00 0.00 0.00 0.00 0.00
0.00 0.00 0.00 0.00 0.00 0.00 0.00 0.00 0.00 0.00 0.00 0.00 0.00 0.00 0.00 0.00 0.01 0.03 0.07 0.15 0.25 0.42 0.80 1.23 1.31 0.98 0.80 0.56 0.20 0.05 0.02 0.02 0.01 0.01 0.01 0.01 0.00 0.00 0.00 0.00 0.00 0.00 0.00 0.00
0.00 0.00 0.00 0.00 0.00 0.00 0.00 0.00 0.00 0.00 0.00 0.00 0.00 0.00 0.00 0.00 0.01 0.02 0.05 0.09 0.23 0.48 0.72 0.81 0.78 0.67 0.48 0.28 0.15 0.08 0.07 0.09 0.08 0.06 0.06 0.04 0.01 0.00 0.00 0.00 0.00 0.00 0.00 0.00
0.00 0.00 0.00 0.00 0.00 0.00 0.00 0.00 0.00 0.00 0.01 0.03 0.03 0.01 0.01 0.00 0.00 0.01 0.02 0.07 0.24 0.36 0.38 0.32 0.26 0.22 0.18 0.13 0.08 0.05 0.06 0.10 0.10 0.07 0.07 0.06 0.05 0.04 0.02 0.01 0.01 0.00 0.00 0.00
0.00 0.00 0.00 0.00 0.00 0.00 0.00 0.00 0.00 0.01 0.07 0.12 0.07 0.02 0.02 0.00 0.00 0.00 0.00 0.02 0.07 0.13 0.19 0.23 0.24 0.20 0.15 0.10 0.05 0.03 0.02 0.04 0.05 0.05 0.05 0.06 0.07 0.07 0.05 0.04 0.02 0.02 0.00 0.00
0.01 0.01 0.00 0.00 0.00 0.00 0.00 0.00 0.00 0.00 0.01 0.01 0.01 0.02 0.03 0.01 0.00 0.00 0.00 0.00 0.02 0.04 0.07 0.11 0.13 0.13 0.11 0.08 0.05 0.03 0.02 0.03 0.03 0.03 0.03 0.04 0.06 0.06 0.06 0.10 0.06 0.04 0.02 0.00
0.00 0.00 0.00 0.00 0.00 0.00 0.00 0.00 0.00 0.00 0.00 0.00 0.01 0.06 0.09 0.06 0.05 0.01 0.00 0.00 0.00 0.01 0.02 0.03 0.03 0.04 0.04 0.04 0.04 0.03 0.03 0.02 0.02 0.02 0.03 0.04 0.06 0.07 0.08 0.10 0.09 0.07 0.07 0.03
0.00 0.00 0.00 0.00 0.00 0.00 0.00 0.00 0.00 0.00 0.00 0.00 0.00 0.07 0.16 0.14 0.08 0.01 0.00 0.00 0.00 0.00 0.00 0.01 0.01 0.01 0.01 0.01 0.02 0.02 0.02 0.02 0.01 0.01 0.01 0.01 0.03 0.05 0.07 0.08 0.10 0.11 0.10 0.09
0.00 0.00 0.00 0.00 0.00 0.00 0.00 0.00 0.00 0.00 0.00 0.00 0.00 0.06 0.08 0.06 0.03 0.00 0.00 0.00 0.00 0.00 0.00 0.00 0.00 0.01 0.01 0.01 0.01 0.01 0.01 0.01 0.02 0.01 0.01 0.01 0.01 0.01 0.03 0.07 0.09 0.11 0.10 0.10
0.00 0.00 0.00 0.00 0.01 0.00 0.00 0.00 0.00 0.00 0.00 0.00 0.00 0.04 0.04 0.03 0.02 0.00 0.00 0.00 0.00 0.00 0.00 0.00 0.00 0.00 0.00 0.00 0.00 0.01 0.01 0.01 0.02 0.02 0.01 0.01 0.01 0.00 0.01 0.01 0.03 0.06 0.08 0.09
0.00 0.00 0.00 0.01 0.02 0.00 0.00 0.00 0.00 0.00 0.00 0.00 0.04 0.08 0.04 0.01 0.01 0.00 0.00 0.00 0.00 0.00 0.00 0.00 0.00 0.00 0.00 0.00 0.00 0.00 0.01 0.01 0.01 0.01 0.01 0.00 0.00 0.00 0.00 0.00 0.00 0.01 0.04 0.07
0.00 0.00 0.00 0.00 0.00 0.00 0.00 0.00 0.00 0.00 0.00 0.00 0.03 0.09 0.02 0.00 0.00 0.00 0.00 0.00 0.00 0.00 0.00 0.00 0.00 0.00 0.00 0.00 0.00 0.00 0.00 0.00 0.00 0.00 0.00 0.00 0.00 0.00 0.00 0.00 0.00 0.01 0.01 0.03
0.00 0.00 0.00 0.00 0.00 0.00 0.00 0.00 0.00 0.00 0.00 0.02 0.02 0.03 0.01 0.00 0.00 0.00 0.00 0.00 0.00 0.00 0.00 0.00 0.00 0.00 0.00 0.00 0.00 0.00 0.00 0.00 0.00 0.00 0.01 0.01 0.01 0.02 0.02 0.02 0.02 0.02 0.02 0.02
0.00 0.00 0.00 0.00 0.00 0.00 0.00 0.00 0.00 0.00 0.00 0.00 0.00 0.00 0.00 0.00 0.00 0.00 0.00 0.00 0.00 0.00 0.00 0.00 0.00 0.00 0.00 0.00 0.00 0.00 0.00 0.00 0.00 0.01 0.01 0.01 0.01 0.02 0.02 0.02 0.02 0.02 0.02 0.02
0.00 0.00 0.00 0.00 0.00 0.00 0.04 0.01 0.00 0.00 0.00 0.00 0.00 0.00 0.00 0.00 0.00 0.00 0.00 0.00 0.00 0.00 0.00 0.00 0.00 0.00 0.00 0.00 0.00 0.00 0.00 0.00 0.00 0.00 0.01 0.01 0.01 0.01 0.01 0.01 0.01 0.01 0.01 0.01
0.00 0.00 0.00 0.00 0.00 0.02 0.03 0.00 0.00 0.00 0.00 0.00 0.00 0.00 0.00 0.00 0.00 0.00 0.00 0.00 0.00 0.00 0.00 0.00 0.00 0.00 0.00 0.00 0.00 0.00 0.00 0.00 0.00 0.00 0.00 0.00 0.01 0.01 0.01 0.01 0.02 0.02 0.02 0.02
0.00 0.00 0.00 0.00 0.00 0.01 0.00 0.00 0.00 0.00 0.00 0.00 0.00 0.00 0.00 0.00 0.00 0.00 0.00 0.00 0.00 0.00 0.00 0.00 0.00 0.00 0.00 0.00 0.00 0.00 0.00 0.00 0.00 0.00 0.00 0.00 0.00 0.00 0.01 0.01 0.02 0.02 0.03 0.02
0.00 0.00 0.00 0.00 0.00 0.01 0.01 0.00 0.00 0.00 0.00 0.00 0.00 0.00 0.00 0.00 0.00 0.00 0.00 0.00 0.00 0.00 0.00 0.00 0.00 0.00 0.00 0.00 0.00 0.00 0.00 0.00 0.00 0.00 0.00 0.00 0.00 0.01 0.01 0.02 0.03 0.03 0.03 0.03
0.00 0.00 0.00 0.00 0.00 0.00 0.00 0.00 0.00 0.00 0.00 0.00 0.00 0.00 0.00 0.00 0.00 0.00 0.00 0.00 0.00 0.00 0.00 0.00 0.00 0.00 0.00 0.00 0.00 0.01 0.01 0.01 0.01 0.01 0.01 0.01 0.02 0.02 0.03 0.03 0.04 0.05 0.04 0.04
0.00 0.00 0.00 0.00 0.00 0.00 0.00 0.00 0.00 0.00 0.00 0.00 0.00 0.00 0.00 0.00 0.00 0.00 0.00 0.00 0.00 0.00 0.00 0.00 0.00 0.00 0.00 0.00 0.01 0.02 0.02 0.02 0.03 0.03 0.03 0.04 0.04 0.04 0.02 0.05 0.07 0.07 0.08 0.08
0.00 0.00 0.00 0.00 0.00 0.00 0.00 0.00 0.00 0.00 0.00 0.00 0.00 0.00 0.00 0.00 0.00 0.00 0.00 0.00 0.00 0.00 0.00 0.00 0.00 0.00 0.00 0.01 0.02 0.03 0.03 0.04 0.04 0.05 0.05 0.06 0.06 0.07 0.07 0.07 0.07 0.08 0.09 0.08
0.00 0.00 0.00 0.00 0.00 0.00 0.00 0.00 0.00 0.00 0.00 0.00 0.00 0.00 0.00 0.00 0.00 0.00 0.00 0.00 0.00 0.00 0.00 0.00 0.00 0.01 0.02 0.02 0.03 0.03 0.04 0.05 0.07 0.07 0.07 0.07 0.08 0.08 0.08 0.09 0.08 0.07 0.07 0.07
0.00 0.00 0.00 0.00 0.00 0.00 0.00 0.00 0.00 0.00 0.00 0.00 0.00 0.00 0.00 0.00 0.00 0.00 0.00 0.00 0.00 0.00 0.00 0.00 0.01 0.03 0.02 0.02 0.03 0.03 0.05 0.08 0.09 0.09 0.09 0.09 0.09 0.09 0.08 0.08 0.07 0.06 0.06 0.06
0.00 0.00 0.00 0.00 0.00 0.00 0.00 0.00 0.00 0.00 0.00 0.00 0.00 0.00 0.00 0.00 0.00 0.00 0.00 0.00 0.00 0.01 0.01 0.02 0.03 0.04 0.04 0.05 0.05 0.04 0.06 0.10 0.13 0.13 0.12 0.12 0.12 0.10 0.09 0.07 0.06 0.04 0.02 0.02
MSLP
1007.58 1007.88 1008.02 1008.01 1007.90 1007.72 1007.49 1007.23 1006.93 1006.57 1006.14 1005.63 1005.06 1004.48 1003.93 1003.48 1003.16 1003.00 1003.00 1003.10 1003.26 1003.42 1003.53 1003.57 1003.56 1003.54 1003.55 1003.66 1003.92 1004.33 1004.90 1005.56 1006.25 1006.91 1007.48 1007.92 1008.22 1008.41 1008.52 1008.61 1008.73 1008.90 1009.14 1009.43
1008.11 1008.27 1008.27 1008.15 1007.96 1007.75 1007.55 1007.37 1007.19 1006.98 1006.69 1006.31 1005.84 1005.33 1004.83 1004.41 1004.13 1004.01 1004.05 1004.22 1004.47 1004.70 1004.88 1004.95 1004.92 1004.81 1004.70 1004.64 1004.70 1004.92 1005.29 1005.79 1006.36 1006.93 1007.44 1007.84 1008.12 1008.27 1008.36 1008.41 1008.49 1008.63 1008.85 1009.13
1008.57 1008.60 1008.47 1008.25 1008.01 1007.80 1007.67 1007.61 1007.59 1007.55 1007.43 1007.21 1006.88 1006.48 1006.05 1005.68 1005.44 1005.36 1005.46 1005.70 1006.02 1006.33 1006.56 1006.66 1006.61 1006.43 1006.20 1005.97 1005.82 1005.82 1005.98 1006.28 1006.68 1007.12 1007.52 1007.85 1008.06 1008.17 1008.21 1008.22 1008.25 1008.35 1008.54 1008.82
1008.90 1008.80 1008.57 1008.28 1008.02 1007.86 1007.83 1007.92 1008.09 1008.25 1008.34 1008.30 1008.12 1007.83 1007.48 1007.17 1006.96 1006.91 1007.04 1007.32 1007.68 1008.04 1008.31 1008.43 1008.36 1008.13 1007.79 1007.42 1007.10 1006.89 1006.84 1006.95 1007.17 1007.46 1007.74 1007.97 1008.10 1008.15 1008.12 1008.08 1008.06 1008.12 1008.27 1008.52
1009.06 1008.86 1008.54 1008.22 1007.98 1007.89 1007.99 1008.26 1008.63 1009.00 1009.30 1009.45 1009.42 1009.25 1008.97 1008.69 1008.49 1008.44 1008.56 1008.84 1009.20 1009.57 1009.86 1009.98 1009.91 1009.65 1009.24 1008.77 1008.32 1007.96 1007.75 1007.69 1007.76 1007.91 1008.07 1008.20 1008.25 1008.23 1008.14 1008.04 1007.97 1007.98 1008.08 1008.28
1009.08 1008.78 1008.41 1008.08 1007.88 1007.89 1008.12 1008.56 1009.13 1009.71 1010.20 1010.53 1010.65 1010.57 1010.36 1010.09 1009.88 1009.78 1009.85 1010.07 1010.39 1010.73 1011.00 1011.11 1011.04 1010.77 1010.34 1009.83 1009.32 1008.88 1008.57 1008.41 1008.37 1008.42 1008.49 1008.54 1008.53 1008.44 1008.30 1008.14 1008.01 1007.95 1007.99 1008.13
1008.99 1008.62 1008.22 1007.89 1007.74 1007.84 1008.20 1008.79 1009.52 1010.28 1010.94 1011.42 1011.66 1011.67 1011.49 1011.23 1010.97 1010.81 1010.78 1010.91 1011.14 1011.41 1011.64 1011.73 1011.66 1011.41 1011.00 1010.51 1010.01 1009.56 1009.23 1009.03 1008.95 1008.94 1008.97 1008.97 1008.91 1008.78 1008.59 1008.38 1008.19 1008.06 1008.02 1008.08
1008.88 1008.46 1008.04 1007.72 1007.61 1007.77 1008.22 1008.92 1009.77 1010.66 1011.44 1012.03 1012.37 1012.45 1012.31 1012.03 1011.73 1011.48 1011.35 1011.36 1011.48 1011.65 1011.81 1011.88 1011.81 1011.59 1011.24 1010.82 1010.38 1009.99 1009.70 1009.53 1009.46 1009.45 1009.46 1009.45 1009.37 1009.21 1008.99 1008.73 1008.48 1008.28 1008.16 1008.13
1008.82 1008.38 1007.95 1007.64 1007.55 1007.74 1008.23 1008.97 1009.88 1010.83 1011.69 1012.35 1012.76 1012.89 1012.79 1012.51 1012.17 1011.86 1011.63 1011.52 1011.52 1011.58 1011.66 1011.69 1011.62 1011.45 1011.18 1010.85 1010.51 1010.22 1010.02 1009.91 1009.88 1009.91 1009.93 1009.92 1009.84 1009.67 1009.42 1009.13 1008.84 1008.57 1008.36 1008.23
1008.87 1008.43 1008.01 1007.71 1007.61 1007.79 1008.27 1008.99 1009.89 1010.84 1011.72 1012.42 1012.88 1013.06 1013.00 1012.74 1012.39 1012.03 1011.73 1011.52 1011.41 1011.38 1011.38 1011.36 1011.30 1011.16 1010.96 1010.73 1010.50 1010.32 1010.21 1010.18 1010.21 1010.27 1010.33 1010.33 1010.25 1010.07 1009.82 1009.50 1009.17 1008.85 1008.57 1008.35
1009.06 1008.66 1008.26 1007.97 1007.86 1008.00 1008.41 1009.06 1009.89 1010.78 1011.63 1012.33 1012.80 1013.03 1013.02 1012.81 1012.49 1012.13 1011.79 1011.52 1011.33 1011.21 1011.14 1011.08 1011.00 1010.88 1010.74 1010.58 1010.45 1010.35 1010.32 1010.35 1010.42 1010.50 1010.57 1010.57 1010.50 1010.32 1010.06 1009.74 1009.39 1009.04 1008.71 1008.43
1009.38 1009.05 1008.70 1008.42 1008.29 1008.37 1008.69 1009.24 1009.95 1010.74 1011.51 1012.18 1012.66 1012.92 1012.97 1012.83 1012.56 1012.23 1011.89 1011.59 1011.35 1011.17 1011.04 1010.93 1010.82 1010.71 1010.59 1010.47 1010.38 1010.33 1010.34 1010.38 1010.46 1010.54 1010.59 1010.59 1010.50 1010.33 1010.07 1009.76 1009.41 1009.06 1008.71 1008.40
1009.78 1009.54 1009.27 1009.03 1008.89 1008.92 1009.15 1009.56 1010.14 1010.80 1011.47 1012.07 1012.53 1012.82 1012.92 1012.85 1012.65 1012.37 1012.06 1011.76 1011.49 1011.26 1011.08 1010.91 1010.77 1010.63 1010.50 1010.38 1010.29 1010.24 1010.23 1010.25 1010.30 1010.33 1010.35 1010.31 1010.20 1010.03 1009.79 1009.50 1009.18 1008.85 1008.53 1008.22
1010.21 1010.10 1009.93 1009.75 1009.63 1009.62 1009.76 1010.05 1010.49 1011.01 1011.56 1012.07 1012.49 1012.78 1012.91 1012.89 1012.75 1012.53 1012.25 1011.96 1011.67 1011.41 1011.17 1010.95 1010.75 1010.56 1010.39 1010.24 1010.11 1010.02 1009.96 1009.92 1009.89 1009.86 1009.81 1009.72 1009.59 1009.42 1009.20 1008.95 1008.68 1008.41 1008.14 1007.87
1010.62 1010.65 1010.60 1010.52 1010.44 1010.42 1010.50 1010.69 1010.99 1011.38 1011.80 1012.20 1012.55 1012.81 1012.94 1012.94 1012.84 1012.64 1012.38 1012.09 1011.78 1011.48 1011.18 1010.90 1010.64 1010.40 1010.17 1009.96 1009.78 1009.62 1009.48 1009.35 1009.24 1009.13 1009.01 1008.87 1008.71 1008.54 1008.35 1008.15 1007.95 1007.75 1007.54 1007.33
1011.00 1011.17 1011.25 1011.27 1011.27 1011.27 1011.32 1011.44 1011.63 1011.88 1012.17 1012.46 1012.71 1012.89 1012.98 1012.97 1012.85 1012.65 1012.38 1012.06 1011.72 1011.37 1011.01 1010.67 1010.35 1010.05 1009.76 1009.49 1009.25 1009.02 1008.80 1008.60 1008.40 1008.21 1008.02 1007.84 1007.66 1007.49 1007.33 1007.18 1007.05 1006.92 1006.80 1006.66
1011.36 1011.65 1011.85 1011.98 1012.06 1012.10 1012.15 1012.22 1012.33 1012.47 1012.63 1012.80 1012.93 1013.01 1013.01 1012.93 1012.76 1012.51 1012.19 1011.82 1011.42 1011.01 1010.60 1010.20 1009.83 1009.47 1009.14 1008.83 1008.54 1008.26 1007.99 1007.72 1007.47 1007.22 1006.98 1006.76 1006.56 1006.40 1006.27 1006.17 1006.09 1006.03 1005.97 1005.90
1011.71 1012.09 1012.39 1012.62 1012.78 1012.88 1012.95 1012.99 1013.04 1013.08 1013.12 1013.15 1013.15 1013.10 1012.99 1012.81 1012.54 1012.21 1011.81 1011.37 1010.90 1010.43 1009.96 1009.51 1009.09 1008.71 1008.35 1008.02 1007.71 1007.42 1007.13 1006.84 1006.56 1006.28 1006.01 1005.77 1005.56 1005.40 1005.29 1005.21 1005.18 1005.16 1005.15 1005.13
1012.08 1012.50 1012.88 1013.18 1013.41 1013.56 1013.65 1013.68 1013.67 1013.64 1013.57 1013.47 1013.34 1013.15 1012.91 1012.60 1012.22 1011.78 1011.29 1010.77 1010.22 1009.69 1009.17 1008.69 1008.25 1007.85 1007.50 1007.18 1006.89 1006.61 1006.34 1006.06 1005.78 1005.49 1005.22 1004.97 1004.76 1004.59 1004.47 1004.40 1004.38 1004.38 1004.39 1004.40
1012.47 1012.91 1013.32 1013.67 1013.93 1014.11 1014.21 1014.23 1014.18 1014.07 1013.91 1013.70 1013.44 1013.12 1012.74 1012.31 1011.82 1011.28 1010.70 1010.10 1009.50 1008.91 1008.36 1007.86 1007.42 1007.03 1006.70 1006.42 1006.16 1005.93 1005.69 1005.44 1005.18 1004.92 1004.65 1004.39 1004.16 1003.98 1003.84 1003.75 1003.72 1003.71 1003.72 1003.73
1012.88 1013.31 1013.71 1014.06 1014.34 1014.53 1014.62 1014.62 1014.52 1014.35 1014.10 1013.79 1013.42 1012.99 1012.50 1011.96 1011.38 1010.76 1010.12 1009.47 1008.82 1008.21 1007.64 1007.14 1006.70 1006.34 1006.04 1005.79 1005.58 1005.39 1005.20 1004.99 1004.76 1004.51 1004.25 1003.99 1003.74 1003.52 1003.35 1003.22 1003.15 1003.11 1003.11 1003.12
1013.28 1013.67 1014.04 1014.37 1014.63 1014.80 1014.86 1014.82 1014.68 1014.44 1014.12 1013.72 1013.26 1012.75 1012.19 1011.58 1010.95 1010.28 1009.61 1008.93 1008.28 1007.66 1007.09 1006.59 1006.17 1005.82 1005.54 1005.32 1005.14 1004.99 1004.82 1004.65 1004.44 1004.20 1003.93 1003.65 1003.37 1003.11 1002.88 1002.71 1002.59 1002.53 1002.51 1002.52
1013.62 1013.96 1014.29 1014.58 1014.79 1014.92 1014.94 1014.84 1014.64 1014.34 1013.96 1013.50 1012.98 1012.42 1011.81 1011.18 1010.53 1009.87 1009.20 1008.53 1007.89 1007.28 1006.73 1006.23 1005.81 1005.46 1005.18 1004.96 1004.79 1004.63 1004.47 1004.29 1004.08 1003.83 1003.54 1003.23 1002.91 1002.61 1002.33 1002.11 1001.96 1001.87 1001.85 1001.88
1013.86 1014.16 1014.44 1014.67 1014.84 1014.91 1014.87 1014.72 1014.46 1014.10 1013.66 1013.15 1012.60 1012.01 1011.41 1010.79 1010.16 1009.53 1008.90 1008.27 1007.66 1007.07 1006.53 1006.03 1005.59 1005.21 1004.90 1004.64 1004.42 1004.22 1004.03 1003.81 1003.57 1003.29 1002.97 1002.62 1002.26 1001.92 1001.61 1001.35 1001.18 1001.08 1001.08 1001.15
1013.97 1014.24 1014.48 1014.67 1014.78 1014.80 1014.70 1014.49 1014.17 1013.76 1013.27 1012.74 1012.17 1011.59 1011.00 1010.42 1009.85 1009.27 1008.70 1008.12 1007.55 1006.99 1006.44 1005.92 1005.43 1004.99 1004.60 1004.26 1003.96 1003.68 1003.41 1003.13 1002.83 1002.50 1002.14 1001.76 1001.38 1001.00 1000.68 1000.41 1000.24 1000.17 1000.20 1000.34
1013.95 1014.21 1014.43 1014.59 1014.66 1014.63 1014.48 1014.22 1013.85 1013.40 1012.88 1012.33 1011.76 1011.20 1010.65 1010.13 1009.61 1009.10 1008.59 1008.07 1007.53 1006.97 1006.41 1005.84 1005.28 1004.75 1004.25 1003.78 1003.36 1002.96 1002.59 1002.23 1001.86 1001.48 1001.08 1000.68 1000.28 999.91 999.59 999.35 999.20 999.18 999.27 999.49
Thickness
5809 5796 5788 5795 5804 5802 5803 5804 5807 5823 5846 5833 5817 5818 5833 5843 5837 5834 5835 5837 5836 5835 5835 5830 5819 5812 5804 5797 5796 5791 5785 5783 5780 5776 5771 5766 5763 5762 5761 5759 5755 5751 5747 5744
5794 5782 5797 5806 5806 5801 5801 5796 5801 5815 5829 5820 5809 5810 5826 5836 5832 5827 5822 5819 5817 5814 5808 5797 5789 5781 5781 5778 5777 5776 5774 5772 5771 5769 5766 5761 5758 5756 5756 5754 5750 5747 5744 5741
5783 5785 5804 5801 5796 5792 5792 5789 5790 5792 5803 5810 5803 5798 5813 5825 5821 5813 5805 5797 5788 5772 5765 5754 5743 5746 5749 5748 5752 5761 5764 5763 5762 5761 5760 5757 5752 5748 5746 5745 5744 5743 5741 5738
5792 5803 5800 5793 5789 5790 5781 5795 5793 5791 5784 5782 5795 5776 5800 5805 5796 5783 5772 5762 5750 5745 5741 5733 5722 5718 5728 5729 5738 5747 5751 5752 5751 5752 5749 5746 5741 5738 5740 5740 5740 5739 5738 5735
5785 5796 5793 5785 5789 5793 5787 5798 5793 5789 5780 5773 5780 5773 5783 5795 5773 5761 5756 5750 5742 5738 5734 5724 5715 5712 5717 5724 5729 5733 5736 5739 5740 5739 5737 5735 5734 5735 5736 5736 5735 5733 5733 5733
5791 5807 5804 5798 5802 5804 5800 5793 5791 5786 5764 5731 5732 5738 5761 5773 5763 5751 5747 5743 5737 5734 5730 5723 5715 5712 5713 5717 5719 5721 5721 5722 5724 5726 5727 5727 5725 5725 5725 5724 5724 5725 5727 5728
5768 5791 5805 5809 5793 5797 5790 5773 5756 5746 5721 5708 5725 5729 5743 5753 5752 5744 5738 5735 5732 5728 5722 5716 5710 5707 5707 5708 5708 5708 5708 5707 5709 5711 5712 5713 5714 5716 5715 5715 5717 5719 5720 5721
5738 5753 5791 5803 5792 5778 5780 5774 5750 5736 5739 5748 5742 5734 5727 5740 5741 5739 5735 5730 5726 5721 5716 5710 5706 5702 5699 5697 5696 5696 5695 5695 5696 5697 5696 5697 5698 5700 5702 5704 5708 5711 5713 5714
5762 5765 5799 5808 5806 5793 5776 5773 5779 5761 5759 5755 5756 5730 5720 5725 5723 5726 5725 5720 5715 5711 5708 5704 5700 5695 5691 5688 5685 5683 5682 5681 5682 5682 5682 5683 5683 5684 5686 5690 5694 5697 5699 5702
5783 5767 5788 5804 5808 5802 5791 5781 5770 5753 5736 5732 5750 5728 5711 5708 5709 5714 5711 5707 5703 5701 5699 5695 5691 5687 5683 5680 5676 5673 5669 5666 5665 5666 5666 5667 5668 5670 5672 5675 5677 5680 5684 5687
5790 5770 5776 5788 5779 5776 5778 5774 5767 5758 5749 5727 5720 5715 5718 5709 5706 5703 5699 5696 5692 5689 5686 5683 5679 5676 5673 5669 5664 5659 5656 5652 5649 5648 5647 5647 5649 5651 5655 5657 5661 5663 5667 5671
5784 5772 5760 5771 5785 5786 5779 5770 5761 5737 5731 5732 5721 5702 5711 5705 5699 5693 5688 5684 5680 5677 5674 5671 5668 5663 5658 5652 5646 5641 5637 5634 5632 5630 5628 5628 5628 5630 5633 5637 5641 5645 5649 5653
5770 5755 5742 5753 5761 5769 5769 5772 5765 5752 5736 5723 5705 5688 5703 5699 5693 5687 5680 5673 5669 5666 5662 5658 5654 5648 5642 5636 5630 5625 5621 5618 5616 5614 5612 5611 5611 5612 5613 5616 5620 5623 5628 5634
5771 5754 5742 5734 5747 5764 5762 5762 5757 5741 5721 5711 5708 5694 5695 5690 5683 5676 5668 5663 5658 5653 5649 5645 5640 5633 5627 5620 5614 5608 5604 5601 5598 5596 5594 5593 5594 5595 5597 5599 5601 5605 5609 5614
5771 5753 5753 5758 5767 5766 5757 5747 5741 5728 5714 5703 5700 5696 5693 5681 5671 5665 5661 5655 5648 5641 5637 5631 5622 5614 5607 5601 5595 5589 5584 5581 5578 5577 5575 5575 5576 5577 5580 5582 5585 5588 5592 5598
5766 5750 5747 5747 5759 5756 5742 5732 5725 5716 5707 5698 5692 5689 5688 5677 5666 5657 5649 5641 5631 5626 5618 5609 5600 5592 5584 5577 5573 5569 5566 5564 5562 5560 5559 5558 5558 5559 5561 5564 5567 5571 5574 5579
5753 5737 5730 5731 5750 5747 5719 5710 5705 5699 5695 5687 5677 5679 5679 5665 5652 5644 5637 5627 5620 5608 5597 5586 5577 5569 5563 5560 5559 5558 5557 5556 5554 5553 5552 5552 5551 5552 5552 5553 5554 5556 5558 5562
5743 5732 5728 5733 5735 5709 5701 5713 5704 5692 5690 5685 5676 5664 5655 5647 5641 5634 5625 5614 5599 5586 5575 5567 5561 5557 5555 5555 5555 5553 5552 5549 5547 5546 5546 5546 5545 5546 5548 5548 5549 5549 5549 5549
5752 5734 5725 5723 5715 5711 5702 5702 5693 5679 5675 5668 5656 5648 5642 5635 5626 5621 5612 5596 5581 5570 5562 5557 5554 5553 5553 5552 5550 5548 5545 5542 5540 5539 5538 5537 5537 5538 5539 5541 5542 5543 5543 5543
5752 5743 5729 5714 5698 5692 5686 5694 5693 5680 5670 5660 5649 5638 5630 5621 5608 5606 5597 5583 5571 5562 5556 5553 5553 5552 5550 5549 5546 5542 5538 5535 5532 5530 5528 5527 5527 5528 5530 5532 5534 5536 5536 5537
5728 5729 5718 5704 5694 5694 5690 5692 5683 5656 5649 5654 5645 5633 5620 5606 5594 5590 5583 5573 5564 5559 5555 5553 5551 5548 5546 5543 5539 5534 5530 5525 5522 5519 5517 5516 5516 5518 5521 5523 5526 5527 5528 5529
5718 5710 5700 5695 5683 5678 5690 5679 5658 5647 5650 5642 5631 5621 5610 5600 5591 5581 5572 5565 5560 5557 5555 5552 5548 5545 5541 5536 5530 5525 5520 5515 5510 5507 5505 5504 5505 5506 5510 5513 5516 5518 5519 5520
5719 5701 5693 5688 5682 5688 5682 5670 5662 5653 5641 5632 5623 5614 5602 5592 5582 5574 5567 5563 5559 5555 5551 5547 5541 5537 5532 5525 5516 5510 5505 5500 5496 5493 5492 5492 5494 5495 5498 5500 5504 5507 5509 5512
5711 5710 5698 5688 5689 5684 5674 5667 5658 5648 5636 5627 5617 5606 5595 5583 5575 5569 5564 5560 5555 5551 5544 5537 5529 5522 5515 5507 5499 5493 5489 5485 5482 5481 5481 5481 5483 5487 5490 5492 5496 5499 5502 5505
5709 5707 5692 5683 5681 5673 5668 5657 5649 5642 5632 5621 5611 5598 5586 5577 5570 5564 5559 5554 5548 5540 5531 5521 5510 5502 5496 5489 5484 5480 5476 5473 5471 5471 5472 5474 5476 5479 5483 5486 5489 5493 5497 5499
5711 5695 5678 5669 5668 5658 5653 5651 5644 5634 5624 5615 5603 5593 5583 5572 5565 5560 5553 5546 5537 5526 5515 5505 5495 5487 5482 5478 5475 5473 5469 5466 5464 5465 5466 5468 5470 5473 5477 5480 5484 5488 5491 5494